Димитровград

Россия / Ульяновская область     54°13′03″N   49°37′26″E
темп.,
°C
ветер,
м/с
пор.,
м/с
влажн.,
%
обл.,
%
осадки,
мм/ч
давл.,
гПа
погр.,
м
28 октября, чт
чт2800:00+4юз6145386 0.0 1014598
03:00+3зюз61265100 0.3 1014796
06:00+4зюз51277100 0.2 1013800
09:00+6зюз5107260 0.2 1014551
12:00+9з585798 0.0 10141173
15:00+8зюз4862100 0.0 1014953
18:00+6юз41071100 0.0 1014437
21:00+6юз3880100 0.0 1014334
29 октября, пт
пт2900:00+6зюз2683100 0.0 1015385
03:00+5сз1494100 0.6 1016270
06:00+5с4785100 0.2 1019638
09:00+3ссв477669 0.3 1024546
12:00+4ссв344970 0.0 1026723
15:00+4ссв22445 0.0 1027586
18:00+1ююв00555 0.0 102810
21:00+1юз2360100 0.0 102855
30 октября, сб
сб3000:00+1юз3866100 0.0 1028217
03:00+3юз41176100 0.0 1027368
06:00+5юз5127798 0.0 1025554
09:00+6зюз5117542 0.0 1025542
12:00+10зюз51272100 0.0 1024610
15:00+10з5137497 0.0 1024649
18:00+9з514845 0.0 1024479
21:00+8з413926 0.0 1025406
31 октября, вс
вс3100:00+7з411955 0.0 1026318
03:00+6з399724 0.0 1027234
06:00+6з279839 0.0 1027158
09:00+8з379269 0.0 1028298
12:00+11з477059 0.0 1027505
15:00+11зюз386294 0.0 1027358
18:00+9зюз4126867 0.0 1027302
21:00+8з4137445 0.0 1027337
1 ноября, пн
пн100:00+7з4127820 0.0 1027307
03:00+6зюз3118030 0.0 1026266
06:00+5з4118012 0.0 1026259
09:00+7з412685 0.0 1026404
12:00+11з510527 0.0 1025520
15:00+11зюз4105347 0.0 1025441
18:00+8зюз3116777 0.0 1025255
21:00+7з411727 0.0 1024248